Lid_Strength_Index
-1 -1 -2 -1 -2 -2 -1 -1 -1 -1 -1 -1 -1 -1 -1 -1 -1 -1 -1 -3 -2 -1 -1 -1 -1 -1 -1 -1 -1 -1 -1 -1 -1 -1 -1 -1 -1 -1 -1 -1 -1 -1 -1
-2 -1 -1 -1 -1 -1 -1 -1 -1 -1 -1 -1 -1 -1 -1 -1 -1 -1 -1 -1 -2 -2 -1 -1 -1 -1 -1 -1 -1 -1 -1 -1 -1 -1 -1 -1 -1 -1 -1 -1 -1 -1 -1
-2 -1 -1 -1 -1 -2 -2 -2 -1 -1 -1 -1 -1 -1 -1 -1 -1 -1 -1 -1 -1 -2 -2 -2 -1 -1 -1 -1 -1 -1 -1 -1 -1 -1 -1 -1 -1 -1 -1 -1 -1 -1 -1
-2 -2 -1 -1 -1 -1 -1 -1 -1 -0 -1 -1 -1 -0 -1 -1 -1 -1 -1 -1 -1 -1 -2 -2 -1 -1 -1 -1 -1 -1 -1 -1 -1 -1 -1 -1 -1 -1 -1 -1 -1 -1 -1
-2 -1 -1 -1 -2 -1 -1 -1 -1 -1 -0 -0 0 -0 -1 -1 -1 -1 -1 -1 -1 -1 -1 -2 -2 -2 -1 -1 -1 -1 -1 -1 -1 -1 -1 -1 -1 -1 -1 -1 -1 -1 -1
-2 -1 -1 -2 -1 -1 -1 -0 -0 -1 -0 0 0 0 -0 -1 -1 -1 -1 -1 -1 -1 -1 -2 -1 -1 -2 -1 -1 -1 -1 -1 -1 -1 -1 -1 -1 -1 -1 -1 -1 -1 -1
-2 -2 -1 -1 -1 -1 -1 -1 -0 -0 0 -0 1 1 0 -0 -0 -0 -1 -1 -1 -1 -1 -1 -2 -0 -1 -2 -1 -1 -1 -1 -1 -1 -1 -1 -1 -1 -1 -1 -1 -1 -1
-2 -1 -1 -1 -1 -1 -1 -1 -0 1 0 -0 2 2 3 3 1 -0 -0 -1 -1 -1 -1 -1 -1 -1 -1 -1 -1 -1 -1 -1 -1 -1 -1 -1 -1 -1 -1 -1 -1 -1 -1
-1 -1 -1 -1 -1 -1 -0 -0 -0 0 1 0 -0 2 4 5 2 0 0 -0 -0 -0 -1 -1 -1 -1 -1 -1 -1 -1 -1 -1 -1 -1 -1 -1 -1 -1 -1 -1 -1 -1 -1
-1 -1 -1 -1 -1 -1 -1 -0 -1 -0 0 1 0 -0 0 1 4 5 2 0 -0 0 -0 -0 -0 -1 -1 -1 -1 -1 -1 -1 -1 -1 -1 -1 -1 -1 -1 -1 -1 -1 -1
-1 -1 -1 -1 -1 -0 -1 -1 -1 -0 -0 1 1 1 0 1 1 2 4 3 1 -0 -0 -0 -0 -0 -1 -1 -1 -1 -1 -1 -0 -1 -1 -1 -1 -1 -1 -1 -1 -1 -1
-0 -1 -1 -1 -1 -1 -1 -1 -1 -1 -0 -0 0 0 1 2 2 2 3 2 2 2 -0 -0 -1 -0 -1 -1 -1 -1 -0 0 0 -0 -0 -0 -1 -1 -1 -1 -1 -1 -1
1 -0 -1 -1 -0 -1 -1 -1 -1 -1 -1 -0 -0 1 0 1 0 1 2 3 3 1 1 0 0 -1 -1 -1 -1 -2 1 1 1 1 0 0 0 -0 -0 -1 -1 -0 -1
-0 -0 -1 -1 -1 -1 -1 -1 -0 -0 -0 -0 -0 -0 0 0 0 1 1 3 3 3 2 2 -1 -0 -1 -1 -1 -1 1 2 2 2 2 2 1 0 -0 -1 -1 -0 -1
-0 -1 -1 -1 -1 -1 -1 -1 -0 -0 -1 -0 -0 -0 0 1 0 -0 0 1 2 5 3 1 1 -1 -1 -1 -1 -1 -1 3 2 3 2 2 2 1 1 0 0 0 1
-1 -0 -1 -1 -1 -1 -1 -1 -1 -0 -0 -0 -0 -0 -0 -0 -0 -0 0 0 1 2 4 2 2 -0 -1 -1 -0 -1 1 2 3 3 3 3 3 2 2 1 2 2 2
-1 -1 -1 -1 -1 -1 -1 -1 -1 -0 -0 -0 -0 -0 -0 -1 0 0 0 0 1 1 3 2 1 0 -1 -1 -1 -1 -0 -1 2 3 3 3 3 3 2 2 2 2 2
-1 -1 -1 -1 -1 -0 -1 -0 -0 -0 0 0 0 0 -0 0 0 0 0 0 -0 -0 1 2 1 1 0 -1 -1 -1 -0 -1 1 3 3 4 4 4 4 4 4 4 4
-1 -0 -0 -0 -0 -0 -0 -1 -0 -0 -0 -0 -0 1 0 0 0 0 0 0 0 1 1 2 2 1 1 -0 -0 -1 -1 -1 1 4 4 4 4 5 5 6 6 6 6
-0 -0 -0 -0 -0 -0 -0 -1 -0 -0 -0 -0 -0 -0 -0 0 -0 0 0 0 0 1 1 1 2 2 1 -1 0 1 1 -1 3 1 2 3 4 5 5 5 6 6 7
-0 -0 -0 -0 -0 -0 -0 -0 -0 -0 -0 0 -0 -0 -0 -0 2 1 0 0 0 1 1 2 2 2 2 1 1 0 1 0 0 -1 3 4 3 3 5 5 6 6 6
-0 -0 0 0 0 0 1 1 0 -0 -0 -0 0 -0 -0 0 1 3 3 4 2 1 1 1 2 2 2 1 1 1 1 2 3 2 2 5 5 5 6 8 7 8 8
0 0 0 0 0 -0 3 2 1 -0 0 0 0 0 0 -0 -0 -0 4 4 4 3 3 0 1 2 1 1 1 1 1 2 3 4 3 7 7 7 7 7 8 8 8
1 1 1 0 0 0 5 5 2 -0 -0 -0 -0 -0 -0 0 1 0 0 0 1 2 2 1 0 2 2 3 0 -0 1 2 2 3 2 6 5 7 5 5 7 7 8
1 1 0 0 0 0 7 6 2 0 0 0 0 2 0 1 6 4 0 1 1 3 6 6 6 6 7 6 4 0 1 2 3 3 2 3 4 5 4 5 5 5 6
1 0 1 0 2 0 7 8 4 0 1 1 0 2 6 2 6 6 0 1 2 2 3 3 4 5 4 5 4 0 0 2 2 3 0 1 1 1 3 1 1 2 3